Location: *
(33.4133°N, 82.3847°W)
Time: 13:51:23
(UTC+00:00)

Daily predictions for brighter satellites

Satellite Brightness Start Highest point End
(mag) Time Altitude Azimuth Time Altitude Azimuth Time Altitude Azimuth
Cosmos 2227 Rocket 2.2 23:08:26 10° SSW 23:14:05 78° ESE 23:19:44 10° NNE
Cosmos 2219 Rocket 2.9 23:10:50 10° NNW 23:16:24 61° WSW 23:21:57 10° S
Cosmos 1703 4.5 23:13:35 10° SE 23:16:42 23° E 23:19:51 10° NE
NOSS 0 Rocket 3.9 23:11:46 10° NNW 23:17:59 71° ENE 23:24:07 10° SSE
Meteor 2-10 Rocket 4.3 23:21:07 10° NNE 23:25:35 28° ENE 23:29:56 10° SE
YAOGAN 6 2.8 23:22:48 10° SSE 23:26:23 51° ENE 23:29:57 10° N
USA 32 4.0 23:24:13 10° S 23:29:26 85° E 23:34:41 10° N
USA 234 3.3 23:23:24 10° ESE 23:29:48 60° NE 23:36:12 10° NW
COSMOS 2428 4.1 23:26:58 10° NW 23:32:24 45° WSW 23:37:48 10° S
USA 116 3.8 23:32:20 10° NNE 23:35:11 33° E 23:38:02 10° SSE
FALCON 9 R/B 4.4 23:10:08 10° SW 23:37:10 49° SSE 23:44:06 12° E
SKYMED 2 3.7 23:35:51 10° N 23:40:12 81° WNW 23:44:32 10° SSW
Meteor 2-1 Rocket 4.4 23:37:09 10° NNW 23:42:40 77° W 23:48:14 10° S
CZ-2D R/B 4.1 23:42:58 10° SE 23:46:12 27° ENE 23:49:27 10° NNE
DELTA 2 R/B (1) 4.2 23:40:56 10° WNW 23:46:16 44° N 23:50:23 16° ENE
Envisat 3.5 23:41:20 10° S 23:46:20 63° WSW 23:51:23 10° NNW
CSL-04 Debris 4.5 23:41:35 10° SE 23:46:37 42° ENE 23:51:40 10° N
Cosmos-2242 2.9 23:46:41 10° N 23:50:59 70° E 23:55:13 10° SSE
YAOGAN 1 2.8 23:47:02 10° SSE 23:51:10 47° ENE 23:55:19 10° N
CZ-4 R/B 1.3 23:47:23 10° SSE 23:51:20 63° ENE 23:55:24 10° N
CZ-4C R/B 3.5 23:43:49 10° NW 23:51:27 68° WSW 23:59:48 10° SSE
Cosmos 1727 Rocket 4.4 23:48:36 10° NNE 23:54:15 37° ENE 23:59:53 10° SE
